QPF
0.00 0.00 0.00 0.00 0.00 0.00 0.00 0.00 0.00 0.00 0.00 0.00 0.00 0.00 0.00 0.01 0.01 0.01 0.00 0.01 0.01 0.01 0.02 0.03 0.04 0.05 0.05 0.06 0.05 0.07 0.07 0.08 0.11 0.12 0.12 0.10 0.06 0.06 0.06 0.05 0.05 0.06 0.08
0.00 0.00 0.00 0.00 0.00 0.00 0.00 0.00 0.00 0.00 0.00 0.00 0.01 0.01 0.00 0.01 0.01 0.01 0.01 0.01 0.01 0.02 0.04 0.05 0.06 0.06 0.06 0.06 0.07 0.08 0.08 0.08 0.10 0.11 0.12 0.09 0.08 0.07 0.05 0.05 0.05 0.06 0.08
0.00 0.00 0.00 0.00 0.00 0.00 0.00 0.00 0.00 0.00 0.00 0.00 0.01 0.01 0.01 0.01 0.02 0.02 0.02 0.03 0.03 0.03 0.04 0.05 0.06 0.07 0.07 0.06 0.07 0.07 0.07 0.08 0.10 0.12 0.12 0.12 0.11 0.11 0.09 0.07 0.05 0.07 0.08
0.00 0.00 0.00 0.00 0.00 0.00 0.00 0.00 0.00 0.00 0.00 0.00 0.00 0.00 0.01 0.02 0.03 0.03 0.04 0.04 0.05 0.05 0.06 0.05 0.05 0.06 0.06 0.06 0.05 0.06 0.08 0.08 0.10 0.11 0.10 0.11 0.12 0.13 0.13 0.11 0.09 0.08 0.07
0.00 0.00 0.00 0.00 0.00 0.00 0.00 0.00 0.00 0.00 0.00 0.00 0.00 0.00 0.01 0.01 0.03 0.03 0.02 0.02 0.03 0.04 0.05 0.05 0.06 0.06 0.06 0.04 0.05 0.06 0.08 0.08 0.09 0.11 0.11 0.08 0.08 0.09 0.11 0.12 0.11 0.11 0.09
0.00 0.00 0.00 0.00 0.00 0.00 0.00 0.00 0.00 0.00 0.00 0.00 0.00 0.00 0.00 0.00 0.01 0.01 0.01 0.01 0.02 0.03 0.04 0.04 0.05 0.06 0.06 0.05 0.05 0.06 0.08 0.08 0.08 0.10 0.10 0.08 0.08 0.08 0.09 0.09 0.09 0.11 0.10
0.00 0.00 0.00 0.00 0.00 0.00 0.00 0.00 0.00 0.00 0.00 0.00 0.00 0.00 0.00 0.00 0.00 0.00 0.01 0.01 0.01 0.02 0.02 0.03 0.04 0.05 0.06 0.06 0.06 0.05 0.07 0.07 0.07 0.06 0.07 0.06 0.07 0.08 0.09 0.11 0.09 0.07 0.07
0.00 0.00 0.00 0.00 0.00 0.00 0.00 0.00 0.00 0.00 0.00 0.00 0.00 0.00 0.00 0.00 0.00 0.01 0.01 0.01 0.01 0.02 0.01 0.02 0.02 0.04 0.05 0.04 0.05 0.05 0.05 0.06 0.05 0.04 0.05 0.04 0.04 0.06 0.07 0.10 0.10 0.07 0.07
0.00 0.00 0.00 0.00 0.00 0.00 0.00 0.00 0.00 0.00 0.00 0.00 0.00 0.00 0.00 0.00 0.00 0.00 0.00 0.00 0.01 0.02 0.02 0.02 0.02 0.03 0.03 0.04 0.04 0.04 0.06 0.06 0.05 0.04 0.04 0.04 0.04 0.05 0.06 0.08 0.11 0.09 0.07
0.00 0.00 0.00 0.00 0.00 0.00 0.00 0.00 0.00 0.00 0.00 0.00 0.00 0.00 0.00 0.00 0.00 0.00 0.00 0.00 0.01 0.01 0.01 0.01 0.02 0.03 0.02 0.03 0.04 0.05 0.06 0.05 0.05 0.05 0.04 0.05 0.05 0.06 0.06 0.07 0.10 0.08 0.08
0.00 0.00 0.00 0.00 0.00 0.00 0.00 0.00 0.00 0.00 0.00 0.00 0.00 0.00 0.00 0.00 0.00 0.00 0.00 0.00 0.01 0.02 0.02 0.01 0.02 0.03 0.03 0.04 0.04 0.05 0.04 0.03 0.03 0.03 0.04 0.05 0.06 0.05 0.05 0.06 0.07 0.07 0.06
0.00 0.00 0.00 0.00 0.00 0.00 0.00 0.00 0.00 0.00 0.00 0.00 0.00 0.00 0.00 0.00 0.00 0.00 0.00 0.00 0.01 0.02 0.02 0.01 0.01 0.02 0.03 0.04 0.05 0.05 0.05 0.05 0.04 0.03 0.04 0.05 0.06 0.05 0.05 0.05 0.04 0.04 0.04
0.00 0.00 0.00 0.00 0.00 0.00 0.00 0.00 0.00 0.00 0.00 0.00 0.00 0.00 0.00 0.00 0.00 0.00 0.00 0.00 0.00 0.01 0.01 0.01 0.01 0.01 0.01 0.03 0.05 0.07 0.06 0.03 0.03 0.03 0.04 0.03 0.04 0.04 0.04 0.04 0.03 0.03 0.03
0.00 0.00 0.00 0.00 0.00 0.00 0.00 0.00 0.00 0.00 0.00 0.00 0.00 0.00 0.00 0.00 0.00 0.00 0.00 0.00 0.00 0.00 0.01 0.01 0.01 0.01 0.01 0.02 0.02 0.04 0.04 0.03 0.03 0.03 0.04 0.04 0.02 0.02 0.03 0.03 0.04 0.04 0.04
0.00 0.00 0.00 0.00 0.00 0.00 0.00 0.00 0.00 0.00 0.00 0.00 0.00 0.00 0.00 0.00 0.00 0.00 0.00 0.00 0.00 0.00 0.00 0.01 0.01 0.01 0.01 0.01 0.01 0.02 0.02 0.03 0.03 0.03 0.03 0.02 0.01 0.01 0.02 0.02 0.03 0.04 0.04
0.00 0.00 0.00 0.00 0.00 0.00 0.00 0.00 0.00 0.00 0.00 0.00 0.00 0.00 0.00 0.00 0.00 0.00 0.00 0.00 0.00 0.00 0.00 0.00 0.01 0.00 0.00 0.00 0.00 0.01 0.01 0.02 0.02 0.03 0.03 0.02 0.02 0.01 0.01 0.01 0.02 0.02 0.03
0.00 0.00 0.00 0.00 0.00 0.00 0.00 0.00 0.00 0.00 0.00 0.00 0.00 0.00 0.00 0.00 0.00 0.00 0.00 0.00 0.00 0.00 0.00 0.00 0.00 0.00 0.00 0.00 0.00 0.00 0.01 0.01 0.01 0.02 0.02 0.02 0.01 0.01 0.01 0.02 0.01 0.02 0.02
0.00 0.00 0.00 0.00 0.00 0.00 0.00 0.00 0.00 0.00 0.00 0.00 0.00 0.00 0.00 0.00 0.00 0.00 0.00 0.00 0.00 0.00 0.00 0.00 0.00 0.00 0.00 0.00 0.00 0.00 0.00 0.00 0.00 0.01 0.02 0.02 0.01 0.01 0.01 0.03 0.02 0.03 0.02
0.00 0.00 0.00 0.00 0.00 0.00 0.00 0.00 0.00 0.00 0.00 0.00 0.00 0.00 0.00 0.00 0.00 0.00 0.00 0.00 0.00 0.00 0.00 0.00 0.00 0.00 0.00 0.00 0.00 0.00 0.00 0.00 0.00 0.00 0.00 0.00 0.00 0.00 0.01 0.02 0.04 0.04 0.02
0.00 0.00 0.00 0.00 0.00 0.00 0.00 0.00 0.00 0.00 0.00 0.00 0.00 0.00 0.00 0.00 0.00 0.00 0.00 0.00 0.00 0.00 0.00 0.00 0.00 0.00 0.00 0.00 0.00 0.00 0.00 0.00 0.00 0.00 0.00 0.00 0.00 0.00 0.00 0.01 0.02 0.02 0.02
0.00 0.00 0.00 0.00 0.00 0.00 0.00 0.00 0.00 0.00 0.00 0.00 0.00 0.00 0.00 0.00 0.00 0.00 0.00 0.00 0.00 0.00 0.00 0.00 0.00 0.00 0.00 0.00 0.00 0.00 0.00 0.00 0.00 0.00 0.00 0.00 0.00 0.00 0.00 0.00 0.01 0.00 0.01
0.00 0.00 0.00 0.00 0.00 0.00 0.00 0.00 0.00 0.00 0.00 0.00 0.00 0.00 0.00 0.00 0.00 0.00 0.00 0.00 0.00 0.00 0.00 0.00 0.00 0.00 0.00 0.00 0.00 0.00 0.00 0.00 0.00 0.00 0.00 0.00 0.00 0.00 0.00 0.00 0.00 0.00 0.01
0.00 0.00 0.00 0.00 0.00 0.00 0.00 0.00 0.00 0.00 0.00 0.00 0.00 0.00 0.00 0.00 0.00 0.00 0.00 0.00 0.00 0.00 0.00 0.00 0.00 0.00 0.00 0.00 0.00 0.00 0.00 0.00 0.00 0.00 0.00 0.00 0.00 0.00 0.00 0.00 0.00 0.01 0.02
0.00 0.00 0.00 0.00 0.00 0.00 0.00 0.00 0.00 0.00 0.00 0.00 0.00 0.00 0.00 0.00 0.00 0.00 0.00 0.00 0.00 0.00 0.00 0.00 0.00 0.00 0.00 0.00 0.00 0.00 0.00 0.00 0.00 0.00 0.00 0.00 0.00 0.00 0.00 0.00 0.01 0.01 0.01
0.00 0.00 0.00 0.00 0.00 0.00 0.00 0.00 0.00 0.00 0.00 0.00 0.00 0.00 0.00 0.00 0.00 0.00 0.00 0.00 0.00 0.00 0.00 0.00 0.00 0.00 0.00 0.00 0.00 0.00 0.00 0.00 0.00 0.00 0.00 0.00 0.00 0.00 0.00 0.00 0.00 0.00 0.00
0.00 0.00 0.00 0.00 0.00 0.00 0.00 0.00 0.00 0.00 0.00 0.00 0.00 0.00 0.00 0.00 0.00 0.00 0.00 0.00 0.00 0.00 0.00 0.00 0.00 0.00 0.00 0.00 0.00 0.00 0.00 0.00 0.00 0.00 0.00 0.00 0.01 0.01 0.00 0.00 0.00 0.00 0.00
MSLP
1007.86 1008.18 1008.52 1008.86 1009.18 1009.50 1009.82 1010.14 1010.46 1010.79 1011.11 1011.40 1011.63 1011.79 1011.88 1011.89 1011.86 1011.80 1011.74 1011.72 1011.72 1011.75 1011.80 1011.83 1011.82 1011.75 1011.62 1011.43 1011.20 1010.98 1010.80 1010.69 1010.66 1010.71 1010.81 1010.93 1011.03 1011.08 1011.05 1010.94 1010.77 1010.57 1010.39
1007.68 1008.03 1008.38 1008.72 1009.04 1009.35 1009.67 1010.00 1010.36 1010.74 1011.12 1011.47 1011.76 1011.96 1012.07 1012.08 1012.01 1011.92 1011.82 1011.76 1011.74 1011.78 1011.85 1011.93 1011.97 1011.95 1011.85 1011.68 1011.45 1011.21 1010.98 1010.82 1010.74 1010.74 1010.80 1010.89 1010.98 1011.03 1011.00 1010.90 1010.73 1010.52 1010.32
1007.44 1007.81 1008.20 1008.55 1008.89 1009.20 1009.53 1009.88 1010.26 1010.68 1011.10 1011.50 1011.84 1012.08 1012.21 1012.23 1012.16 1012.04 1011.92 1011.83 1011.80 1011.84 1011.92 1012.03 1012.10 1012.12 1012.06 1011.92 1011.70 1011.45 1011.21 1011.02 1010.90 1010.86 1010.89 1010.96 1011.03 1011.07 1011.05 1010.96 1010.79 1010.58 1010.37
1007.13 1007.55 1007.97 1008.37 1008.73 1009.07 1009.41 1009.77 1010.16 1010.60 1011.04 1011.47 1011.84 1012.12 1012.28 1012.32 1012.26 1012.15 1012.02 1011.93 1011.89 1011.92 1012.01 1012.12 1012.23 1012.27 1012.25 1012.13 1011.94 1011.71 1011.48 1011.27 1011.14 1011.07 1011.08 1011.13 1011.20 1011.24 1011.22 1011.13 1010.97 1010.76 1010.52
1006.78 1007.25 1007.73 1008.19 1008.60 1008.97 1009.32 1009.68 1010.07 1010.50 1010.94 1011.37 1011.75 1012.05 1012.25 1012.32 1012.30 1012.22 1012.11 1012.02 1011.98 1012.01 1012.09 1012.20 1012.31 1012.38 1012.38 1012.30 1012.15 1011.95 1011.74 1011.55 1011.42 1011.35 1011.35 1011.39 1011.45 1011.49 1011.48 1011.40 1011.24 1011.03 1010.78
1006.44 1006.96 1007.51 1008.04 1008.50 1008.91 1009.27 1009.62 1009.98 1010.37 1010.78 1011.19 1011.56 1011.88 1012.10 1012.22 1012.25 1012.21 1012.14 1012.07 1012.04 1012.06 1012.13 1012.23 1012.34 1012.41 1012.43 1012.38 1012.28 1012.12 1011.96 1011.80 1011.69 1011.64 1011.65 1011.69 1011.75 1011.79 1011.79 1011.73 1011.59 1011.38 1011.11
1006.13 1006.71 1007.33 1007.92 1008.44 1008.88 1009.25 1009.58 1009.89 1010.22 1010.57 1010.93 1011.28 1011.60 1011.84 1012.01 1012.10 1012.12 1012.09 1012.06 1012.04 1012.06 1012.11 1012.19 1012.28 1012.35 1012.38 1012.37 1012.31 1012.21 1012.09 1011.99 1011.91 1011.89 1011.91 1011.97 1012.04 1012.10 1012.12 1012.08 1011.97 1011.77 1011.51
1005.89 1006.51 1007.19 1007.85 1008.41 1008.88 1009.24 1009.53 1009.79 1010.04 1010.32 1010.62 1010.93 1011.23 1011.50 1011.71 1011.85 1011.93 1011.96 1011.97 1011.97 1011.98 1012.01 1012.07 1012.14 1012.20 1012.24 1012.26 1012.23 1012.18 1012.12 1012.07 1012.04 1012.05 1012.09 1012.17 1012.26 1012.35 1012.41 1012.41 1012.33 1012.17 1011.93
1005.69 1006.35 1007.07 1007.77 1008.37 1008.85 1009.20 1009.45 1009.65 1009.83 1010.03 1010.27 1010.54 1010.82 1011.10 1011.35 1011.55 1011.68 1011.76 1011.81 1011.82 1011.84 1011.86 1011.89 1011.94 1011.99 1012.04 1012.07 1012.08 1012.08 1012.06 1012.05 1012.06 1012.10 1012.17 1012.27 1012.39 1012.51 1012.61 1012.66 1012.64 1012.54 1012.34
1005.51 1006.18 1006.92 1007.64 1008.25 1008.74 1009.08 1009.30 1009.45 1009.57 1009.72 1009.90 1010.14 1010.41 1010.70 1010.97 1011.21 1011.40 1011.53 1011.60 1011.64 1011.66 1011.68 1011.70 1011.73 1011.77 1011.82 1011.87 1011.90 1011.93 1011.95 1011.97 1012.00 1012.06 1012.14 1012.26 1012.40 1012.56 1012.70 1012.81 1012.86 1012.83 1012.70
1005.29 1005.94 1006.67 1007.38 1007.99 1008.47 1008.80 1009.01 1009.15 1009.25 1009.36 1009.53 1009.75 1010.02 1010.32 1010.62 1010.89 1011.11 1011.28 1011.39 1011.45 1011.48 1011.50 1011.52 1011.55 1011.59 1011.64 1011.70 1011.75 1011.79 1011.82 1011.85 1011.89 1011.95 1012.04 1012.16 1012.31 1012.49 1012.67 1012.84 1012.96 1013.01 1012.95
1004.99 1005.59 1006.27 1006.94 1007.53 1008.00 1008.33 1008.56 1008.71 1008.83 1008.96 1009.14 1009.37 1009.65 1009.97 1010.29 1010.59 1010.85 1011.04 1011.18 1011.27 1011.32 1011.36 1011.39 1011.43 1011.48 1011.54 1011.61 1011.66 1011.71 1011.74 1011.76 1011.78 1011.82 1011.89 1011.99 1012.14 1012.33 1012.53 1012.74 1012.92 1013.03 1013.05
1004.57 1005.08 1005.68 1006.28 1006.83 1007.29 1007.64 1007.91 1008.11 1008.29 1008.49 1008.72 1008.99 1009.31 1009.65 1009.99 1010.31 1010.59 1010.81 1010.97 1011.09 1011.17 1011.23 1011.29 1011.36 1011.43 1011.51 1011.58 1011.64 1011.68 1011.69 1011.69 1011.68 1011.69 1011.72 1011.79 1011.91 1012.08 1012.29 1012.52 1012.73 1012.89 1012.98
1004.01 1004.41 1004.89 1005.41 1005.91 1006.35 1006.74 1007.07 1007.36 1007.64 1007.93 1008.25 1008.59 1008.96 1009.33 1009.69 1010.02 1010.31 1010.54 1010.72 1010.87 1010.98 1011.09 1011.19 1011.30 1011.40 1011.51 1011.59 1011.65 1011.68 1011.67 1011.64 1011.59 1011.55 1011.53 1011.56 1011.64 1011.78 1011.97 1012.19 1012.41 1012.60 1012.73
1003.34 1003.60 1003.95 1004.37 1004.80 1005.24 1005.66 1006.08 1006.48 1006.88 1007.29 1007.72 1008.14 1008.57 1008.97 1009.35 1009.68 1009.96 1010.20 1010.40 1010.57 1010.72 1010.87 1011.02 1011.18 1011.33 1011.46 1011.56 1011.63 1011.65 1011.62 1011.56 1011.47 1011.39 1011.33 1011.30 1011.34 1011.44 1011.60 1011.80 1012.00 1012.19 1012.33
1002.60 1002.71 1002.93 1003.23 1003.61 1004.03 1004.50 1005.00 1005.52 1006.05 1006.59 1007.12 1007.63 1008.11 1008.54 1008.92 1009.25 1009.52 1009.76 1009.96 1010.15 1010.34 1010.54 1010.74 1010.94 1011.14 1011.30 1011.43 1011.51 1011.53 1011.49 1011.41 1011.29 1011.18 1011.08 1011.03 1011.03 1011.09 1011.21 1011.37 1011.54 1011.71 1011.84
1001.87 1001.84 1001.92 1002.12 1002.43 1002.84 1003.34 1003.91 1004.54 1005.19 1005.84 1006.46 1007.05 1007.57 1008.02 1008.40 1008.72 1008.98 1009.20 1009.41 1009.62 1009.84 1010.07 1010.32 1010.57 1010.80 1011.00 1011.16 1011.25 1011.27 1011.23 1011.15 1011.03 1010.90 1010.79 1010.72 1010.70 1010.74 1010.83 1010.95 1011.10 1011.23 1011.34
1001.21 1001.05 1001.02 1001.12 1001.37 1001.76 1002.28 1002.91 1003.61 1004.34 1005.08 1005.78 1006.41 1006.96 1007.42 1007.79 1008.10 1008.34 1008.56 1008.77 1009.00 1009.24 1009.51 1009.79 1010.07 1010.34 1010.56 1010.73 1010.84 1010.88 1010.85 1010.78 1010.67 1010.56 1010.47 1010.41 1010.39 1010.42 1010.50 1010.60 1010.72 1010.83 1010.91
1000.70 1000.44 1000.31 1000.33 1000.51 1000.87 1001.39 1002.04 1002.78 1003.56 1004.35 1005.08 1005.74 1006.31 1006.77 1007.14 1007.44 1007.68 1007.90 1008.12 1008.36 1008.63 1008.92 1009.22 1009.53 1009.81 1010.05 1010.23 1010.35 1010.40 1010.40 1010.35 1010.28 1010.20 1010.15 1010.12 1010.13 1010.18 1010.26 1010.36 1010.46 1010.55 1010.60
1000.38 1000.04 999.83 999.78 999.90 1000.22 1000.70 1001.34 1002.07 1002.86 1003.65 1004.40 1005.07 1005.64 1006.11 1006.49 1006.80 1007.06 1007.30 1007.54 1007.80 1008.09 1008.40 1008.72 1009.04 1009.32 1009.56 1009.74 1009.87 1009.93 1009.94 1009.93 1009.90 1009.88 1009.87 1009.90 1009.95 1010.04 1010.14 1010.25 1010.35 1010.43 1010.46
1000.26 999.87 999.59 999.47 999.52 999.77 1000.20 1000.78 1001.47 1002.23 1003.00 1003.73 1004.40 1004.99 1005.48 1005.89 1006.24 1006.54 1006.82 1007.11 1007.41 1007.73 1008.06 1008.39 1008.70 1008.97 1009.20 1009.37 1009.49 1009.56 1009.59 1009.61 1009.62 1009.65 1009.70 1009.78 1009.88 1010.01 1010.14 1010.27 1010.38 1010.45 1010.48
1000.32 999.88 999.54 999.34 999.32 999.48 999.82 1000.31 1000.93 1001.63 1002.36 1003.07 1003.75 1004.36 1004.89 1005.37 1005.78 1006.16 1006.52 1006.88 1007.23 1007.59 1007.94 1008.28 1008.58 1008.84 1009.04 1009.19 1009.30 1009.36 1009.41 1009.45 1009.49 1009.56 1009.66 1009.78 1009.93 1010.09 1010.25 1010.40 1010.52 1010.60 1010.63
1000.53 1000.03 999.62 999.34 999.21 999.26 999.49 999.87 1000.40 1001.02 1001.70 1002.40 1003.08 1003.73 1004.34 1004.91 1005.43 1005.92 1006.38 1006.83 1007.26 1007.67 1008.05 1008.39 1008.68 1008.92 1009.10 1009.23 1009.31 1009.37 1009.42 1009.47 1009.54 1009.64 1009.77 1009.92 1010.10 1010.28 1010.46 1010.61 1010.74 1010.82 1010.85
1000.80 1000.24 999.74 999.36 999.11 999.03 999.13 999.39 999.81 1000.35 1000.98 1001.67 1002.38 1003.10 1003.81 1004.49 1005.14 1005.77 1006.36 1006.91 1007.43 1007.90 1008.31 1008.66 1008.95 1009.17 1009.33 1009.43 1009.50 1009.55 1009.60 1009.66 1009.75 1009.86 1010.00 1010.17 1010.35 1010.54 1010.71 1010.87 1010.98 1011.06 1011.10
1001.09 1000.44 999.84 999.33 998.95 998.73 998.69 998.83 999.14 999.60 1000.19 1000.88 1001.63 1002.43 1003.25 1004.07 1004.86 1005.63 1006.35 1007.03 1007.63 1008.16 1008.62 1008.99 1009.27 1009.49 1009.63 1009.73 1009.80 1009.85 1009.90 1009.97 1010.06 1010.18 1010.32 1010.49 1010.66 1010.83 1010.99 1011.13 1011.24 1011.31 1011.34
1001.34 1000.58 999.86 999.22 998.70 998.34 998.15 998.16 998.37 998.76 999.32 1000.01 1000.82 1001.70 1002.63 1003.58 1004.52 1005.43 1006.28 1007.06 1007.75 1008.34 1008.84 1009.23 1009.53 1009.75 1009.90 1010.01 1010.08 1010.15 1010.22 1010.30 1010.40 1010.53 1010.67 1010.83 1010.98 1011.14 1011.27 1011.39 1011.48 1011.54 1011.57
Thickness
5764 5762 5757 5753 5748 5744 5739 5734 5730 5725 5720 5714 5709 5704 5700 5699 5696 5694 5690 5687 5684 5682 5681 5680 5680 5680 5680 5680 5683 5684 5685 5688 5693 5694 5697 5705 5713 5718 5723 5728 5732 5737 5740
5762 5758 5755 5751 5747 5742 5738 5734 5729 5725 5719 5713 5709 5705 5701 5698 5695 5693 5689 5686 5683 5680 5679 5677 5676 5676 5676 5677 5678 5679 5680 5683 5688 5688 5688 5691 5699 5708 5718 5723 5727 5732 5736
5763 5758 5755 5750 5746 5741 5738 5734 5729 5724 5719 5714 5709 5704 5700 5696 5693 5689 5686 5684 5682 5679 5677 5675 5674 5674 5674 5674 5675 5676 5676 5676 5681 5686 5684 5684 5686 5696 5708 5716 5721 5725 5729
5766 5760 5755 5750 5746 5743 5740 5735 5730 5725 5720 5715 5708 5701 5696 5691 5690 5688 5685 5684 5681 5679 5676 5674 5673 5672 5672 5672 5673 5675 5674 5674 5674 5679 5684 5687 5690 5689 5693 5705 5714 5719 5723
5767 5761 5757 5752 5749 5745 5739 5734 5730 5724 5719 5714 5708 5702 5697 5693 5691 5688 5685 5682 5680 5678 5675 5673 5672 5671 5671 5671 5672 5672 5673 5673 5673 5674 5678 5682 5686 5689 5689 5691 5701 5709 5716
5767 5762 5758 5753 5748 5743 5737 5732 5727 5722 5718 5713 5709 5704 5698 5694 5690 5686 5683 5681 5679 5677 5675 5673 5671 5670 5670 5670 5670 5671 5672 5672 5673 5674 5676 5677 5679 5682 5686 5688 5692 5698 5707
5765 5760 5754 5749 5744 5739 5735 5731 5726 5721 5718 5714 5710 5706 5701 5695 5690 5686 5683 5680 5678 5676 5674 5673 5671 5670 5669 5670 5670 5670 5670 5671 5671 5672 5674 5677 5679 5683 5685 5685 5687 5692 5699
5764 5760 5755 5749 5743 5739 5735 5730 5726 5721 5718 5714 5711 5707 5702 5696 5692 5688 5685 5682 5679 5677 5676 5674 5672 5671 5670 5670 5670 5669 5670 5672 5672 5672 5673 5675 5678 5681 5683 5683 5683 5684 5689
5763 5759 5755 5750 5745 5740 5736 5732 5727 5722 5719 5715 5712 5708 5703 5698 5694 5690 5687 5684 5681 5679 5677 5675 5674 5672 5671 5670 5669 5669 5669 5670 5671 5671 5673 5674 5676 5679 5681 5683 5683 5681 5679
5762 5759 5755 5751 5747 5743 5738 5734 5729 5725 5720 5716 5713 5709 5704 5700 5696 5692 5688 5685 5682 5680 5678 5676 5674 5673 5672 5671 5669 5668 5669 5669 5669 5670 5671 5672 5674 5676 5678 5680 5681 5682 5680
5761 5758 5755 5752 5748 5744 5739 5734 5730 5726 5722 5718 5714 5709 5705 5701 5698 5693 5689 5686 5684 5681 5679 5677 5675 5673 5672 5671 5669 5668 5668 5667 5667 5669 5669 5670 5672 5673 5675 5677 5678 5678 5678
5762 5759 5755 5751 5747 5743 5739 5735 5732 5727 5723 5719 5715 5710 5706 5702 5698 5695 5692 5689 5686 5683 5681 5679 5676 5674 5672 5671 5669 5667 5667 5666 5666 5666 5668 5668 5671 5671 5672 5673 5674 5675 5676
5762 5758 5754 5750 5746 5743 5740 5737 5733 5729 5725 5720 5715 5711 5707 5703 5699 5696 5693 5690 5688 5685 5683 5680 5676 5674 5672 5671 5669 5668 5667 5667 5666 5667 5667 5668 5668 5668 5669 5670 5671 5672 5674
5761 5757 5752 5749 5746 5744 5741 5738 5734 5731 5726 5721 5716 5712 5709 5705 5701 5698 5695 5691 5689 5686 5683 5681 5678 5676 5674 5672 5670 5669 5668 5667 5667 5667 5667 5667 5666 5665 5666 5667 5668 5669 5669
5760 5757 5752 5750 5747 5744 5741 5739 5735 5732 5728 5722 5716 5713 5711 5707 5703 5699 5695 5692 5689 5687 5684 5681 5679 5677 5674 5671 5669 5668 5668 5667 5666 5667 5667 5666 5666 5665 5664 5665 5664 5665 5664
5761 5759 5756 5752 5749 5746 5743 5740 5736 5733 5729 5723 5718 5715 5711 5707 5703 5699 5696 5692 5689 5686 5684 5681 5678 5675 5674 5671 5669 5667 5666 5666 5665 5665 5665 5665 5665 5664 5664 5664 5664 5663 5661
5761 5761 5759 5756 5753 5750 5747 5741 5738 5734 5729 5724 5720 5715 5711 5707 5703 5700 5696 5692 5689 5686 5683 5681 5678 5675 5673 5671 5669 5668 5665 5665 5665 5664 5664 5665 5665 5662 5661 5661 5662 5662 5662
5762 5762 5761 5759 5757 5755 5750 5745 5740 5735 5729 5725 5720 5716 5712 5707 5704 5700 5696 5693 5690 5687 5684 5681 5679 5676 5674 5672 5670 5668 5666 5665 5665 5665 5664 5662 5660 5660 5659 5658 5658 5658 5659
5763 5763 5764 5762 5759 5755 5752 5745 5739 5734 5729 5724 5720 5717 5713 5707 5703 5699 5696 5693 5690 5687 5684 5682 5680 5677 5674 5672 5670 5667 5665 5664 5664 5664 5663 5661 5658 5658 5657 5656 5655 5655 5655
5761 5761 5762 5761 5757 5755 5751 5744 5738 5733 5728 5725 5722 5718 5714 5708 5703 5700 5697 5694 5690 5687 5685 5682 5680 5677 5674 5672 5670 5667 5664 5663 5663 5662 5660 5659 5657 5655 5654 5652 5651 5648 5649
5756 5756 5756 5753 5753 5752 5748 5740 5736 5733 5730 5726 5722 5717 5713 5708 5704 5700 5697 5693 5690 5686 5683 5681 5679 5677 5674 5671 5668 5665 5662 5660 5660 5658 5656 5655 5654 5652 5651 5649 5646 5645 5645
5747 5748 5746 5746 5747 5747 5742 5736 5733 5733 5730 5724 5719 5714 5711 5707 5704 5698 5694 5691 5688 5683 5680 5678 5676 5674 5672 5669 5665 5662 5660 5658 5655 5653 5652 5650 5650 5648 5646 5644 5643 5642 5642
5737 5739 5738 5738 5740 5741 5738 5732 5731 5730 5725 5719 5714 5710 5707 5704 5700 5695 5691 5687 5684 5680 5678 5675 5672 5670 5667 5664 5661 5659 5657 5655 5651 5648 5647 5646 5644 5642 5640 5638 5638 5636 5635
5728 5729 5729 5728 5730 5733 5732 5730 5729 5725 5720 5714 5710 5706 5703 5699 5696 5691 5688 5683 5679 5676 5674 5671 5668 5665 5661 5657 5655 5653 5651 5649 5647 5644 5642 5641 5638 5635 5634 5633 5631 5629 5627
5718 5720 5720 5720 5722 5725 5725 5725 5724 5720 5714 5710 5706 5702 5699 5695 5689 5683 5678 5676 5671 5671 5668 5666 5663 5659 5654 5649 5648 5647 5645 5643 5640 5639 5636 5634 5630 5627 5625 5624 5622 5620 5619
5707 5709 5711 5712 5715 5717 5718 5719 5718 5715 5710 5705 5702 5698 5693 5689 5683 5675 5667 5663 5663 5662 5661 5659 5655 5650 5647 5644 5642 5640 5639 5637 5636 5633 5628 5624 5621 5618 5615 5613 5611 5610 5608